ARIANE 5 R/B, 41383

Orbit data source: Space-Track

ARIANE 5 R/B, 41383 is space debris in HEO originally from a launch on Wed, 09 Mar 2016 UTC launched from the French Guiana (FRGUI). Debris objects in space refer to the collection of defunct objects orbiting the Earth. Examples of debris include non-operational satellites, rocket bodies, and fragments generated from explosions, collisions, or faulty payload assembly.

Loading next visibility...
ARIANE 5 R/B details
Identifier
41383, 2016-014B
Orbit
HEO
Last TLE update18 hours ago
Origin
Flag of FRArianespace (FR)
ManufacturerAirbus Safran
MissionSpacecraft
Bus & MotorESC-A, Unknown motor
Mass~5,000 kg wet, ~5,000 kg dry
Launch date (UTC)
2016-03-09 (9 years ago)
Launch vehicleUnknown
Launch site
French Guiana (FRGUI)
Object type
Payload
Rocket body
Debris
Shape & HBRCyl + 1 Nozzle, 7 m
Radar Cross Section41.627 m², Large (>1 m²)

Expand to show TLE details & history

TLE from 18 hours ago
0 ARIANE 5 R/B
1 41383U 16014B   24336.60952194  .00054625  58917-6  16787-2 0  9994
2 41383   0.6215 323.8592 6670019  93.6312 350.2295  3.13869043 84397
Epoch: 2024-12-01T14:37Z
Definitive object data (Epoch: 2024-12-01T14:37:42.695Z)
Latitude0.37573°
Longitude69.62295°
Altitude1,656.352 km
Speed8.887 km/s
True Right ascension23h 59m 59s
True Declination0° 22' 25"
Sunlit
Object was in daylight at TLE epoch
Visualization TLE readout
Latitude-0.61283°
Longitude-69.86805°
Altitude23,680.762 km
Speed2.508 km/s
Apparent Right ascension15h 10m 08s
Apparent Declination-7° 33' 57"
Sunlit
Object is in daylight
Visualization observer readout
Local Sidereal Time06:24:51
Azimuth66.807° ENE
Elevation-35.908°
Doppler factor1
Orbital elements
Apogee altitude26,478.641 km
Perigee altitude185.29 km
Semi-major axis19,710.102 km
Eccentricity0.6670019
Inclination0.6215°
RAAN323.8592°
Arg. of periapsis93.6312°
True anomaly302.97165°
Mean anomaly350.2295°
Eccentric anomaly332.70385°
Mean motion0.78435 °/min
BSTAR0.0016787
Orbital period458.98 mins
Loading maneuver chart data...
Loading historical data...
Loading historical data...
Loading historical data...
Loading historical data...
Loading historical data...
Loading historical data...
Loading historical data...
Other satellites on launch #14 in the year 2016 (2016-03-09 UTC)

ARIANE 5 R/B Visibility forecast

Observer location: undefined°, undefined

Span
Click to sort rows by Start time (UTC) header in descending order
Start Az.
Max El. time (UTC)
Max El. Az.
Max El.
End time (UTC)
End Az.
396 mins2024-12-02 14:14:35.818Z218.003° SW2024-12-02 17:59:35.818Z170.151° S33.004°2024-12-02 20:50:35.818Z133.851° SE
|